THOR ABLESTAR DEB, 148

Orbit data source: Space-Track

THOR ABLESTAR DEB, 148 is space debris in LEO originally from a launch on Thu, 29 Jun 1961 UTC launched from the Air Force Eastern Test Range (AFETR). Debris objects in space refer to the collection of defunct objects orbiting the Earth. Examples of debris include non-operational satellites, rocket bodies, and fragments generated from explosions, collisions, or faulty payload assembly.

Loading next visibility...
Identifier
148, 1961-015AJ
Orbit
LEO
Country
Flag of USUS
Related business
Manufacturer
Unknown
Mission
Spacecraft
Bus & Motor
Unknown
Mass
Unknown
Launch date (UTC)
1961-06-29 (64 years ago)
Launch vehicle
Unknown
Launch site
Air Force Eastern Test Range (AFETR)
Object type
Payload
Rocket body
Debris
Shape & HBR
Unknown
Radar Cross Section
Medium (>0.1 m² and <1 m²)

Expand to show TLE details & history
Last TLE update: 1 day ago

TLE from 1 day ago
0 THOR ABLESTAR DEB
1 00148U 61015AJ  25259.04195412  .00000300  00000-0  20224-3 0  9991
2 00148  65.7707 114.9092 0132791 104.1247 257.4631 14.10166880720311
Epoch: 2025-09-16T01:00Z
TLE epoch observation values (Epoch: 2025-09-16T01:00:24.835Z)
Latitude
-0.00007°
Longitude
104.56775°
Altitude
882.89 km
Speed
7.4 km/s
True Right ascension
07h 39m 38s
True Declination
0° 00' 00"
Sunlit
Object was in daylight at epoch
Visualization orbit readout
Latitude
Unknown
Longitude
Unknown
Altitude
Unknown
Speed
Unknown
Apparent Right ascension
Unknown
Apparent Declination
Unknown
Sunlit
N/A
Visualization observer readout
Local Sidereal Time
01:19:24
Azimuth
Unknown
Elevation
Unknown
Doppler factor
Unknown
Orbital elements
Apogee altitude
953.38 km
Perigee altitude
761.219 km
Semi-major axis
7,235.437 km
Eccentricity
0.01328
Inclination
65.7707°
RAAN
114.9092°
Arg. of periapsis
104.1247°
True anomaly
255.98321°
Mean anomaly
257.4631°
Eccentric anomaly
256.7226°
Mean motion
3.52652 °/min
Orbital period
102.08 mins
BSTAR
0.00020224
Loading maneuver chart data...
Computing Atmospheric mass density...

Documentation

Showing up to 5 results
|